Time,TemperatureF,DewpointF,PressureIn,WindDirection,WindDirectionDegrees,WindSpeedMPH,WindSpeedGustMPH,Humidity,HourlyPrecipIn,Conditions,Clouds,dailyrainin,SolarRadiationWatts/m^2,SoftwareType,DateUTC
2013-05-27 00:01:00,46.0,45.0,-100.00,SSW,212,0.0,4.0,95,0.00,,,0.27,0.000000,,2013-05-27 07:01:00,
2013-05-27 00:11:00,47.0,46.0,-100.00,NW,309,0.0,0.0,96,0.00,,,0.27,0.000000,,2013-05-27 07:11:00,
2013-05-27 00:32:00,47.0,46.0,-100.00,NW,309,0.0,0.0,96,0.00,,,0.27,0.000000,,2013-05-27 07:32:00,
2013-05-27 00:42:00,47.0,46.0,-100.00,NW,309,0.0,0.0,96,0.00,,,0.27,0.000000,,2013-05-27 07:42:00,
2013-05-27 00:52:00,47.0,46.0,-100.00,NW,309,0.0,0.0,96,0.00,,,0.27,0.000000,,2013-05-27 07:52:00,
2013-05-27 01:02:00,47.0,46.0,-100.00,NW,309,0.0,0.0,96,0.00,,,0.27,0.000000,,2013-05-27 08:02:00,
2013-05-27 01:11:00,46.0,45.0,-100.00,ENE,70,0.0,0.0,96,0.00,,,0.27,0.000000,,2013-05-27 08:11:00,
2013-05-27 01:33:00,46.0,45.0,-100.00,ENE,70,0.0,0.0,96,0.00,,,0.27,0.000000,,2013-05-27 08:33:00,
2013-05-27 01:42:00,46.0,45.0,-100.00,ENE,70,0.0,0.0,96,0.00,,,0.27,0.000000,,2013-05-27 08:42:00,
2013-05-27 01:52:00,46.0,45.0,-100.00,ENE,70,0.0,0.0,96,0.00,,,0.27,0.000000,,2013-05-27 08:52:00,
2013-05-27 02:02:00,46.0,45.0,-100.00,ENE,70,0.0,0.0,96,0.00,,,0.27,0.000000,,2013-05-27 09:02:00,
2013-05-27 02:11:00,47.0,46.0,-100.00,East,84,0.0,0.0,97,0.00,,,0.27,0.000000,,2013-05-27 09:11:00,
2013-05-27 02:33:00,47.0,46.0,-100.00,East,84,0.0,0.0,97,0.00,,,0.27,0.000000,,2013-05-27 09:33:00,
2013-05-27 02:42:00,47.0,46.0,-100.00,East,84,0.0,0.0,97,0.00,,,0.27,0.000000,,2013-05-27 09:42:00,
2013-05-27 02:53:00,47.0,46.0,-100.00,East,84,0.0,0.0,97,0.00,,,0.27,0.000000,,2013-05-27 09:53:00,
2013-05-27 03:02:00,47.0,46.0,-100.00,East,84,0.0,0.0,97,0.00,,,0.27,0.000000,,2013-05-27 10:02:00,
2013-05-27 03:11:00,45.0,44.0,-100.00,East,92,0.0,4.0,97,0.00,,,0.27,0.000000,,2013-05-27 10:11:00,
2013-05-27 03:32:00,45.0,44.0,-100.00,East,92,0.0,4.0,97,0.00,,,0.27,0.000000,,2013-05-27 10:32:00,
2013-05-27 03:42:00,45.0,44.0,-100.00,East,92,0.0,4.0,97,0.00,,,0.27,0.000000,,2013-05-27 10:42:00,
2013-05-27 03:52:00,45.0,44.0,-100.00,East,92,0.0,4.0,97,0.00,,,0.27,0.000000,,2013-05-27 10:52:00,
2013-05-27 04:02:00,45.0,44.0,-100.00,East,92,0.0,4.0,97,0.00,,,0.27,0.000000,,2013-05-27 11:02:00,
2013-05-27 04:11:00,45.0,44.0,-100.00,East,84,0.0,6.0,97,0.00,,,0.27,0.000000,,2013-05-27 11:11:00,
2013-05-27 04:32:00,45.0,44.0,-100.00,East,84,0.0,6.0,97,0.00,,,0.27,0.000000,,2013-05-27 11:32:00,
2013-05-27 04:42:00,45.0,44.0,-100.00,East,84,0.0,6.0,97,0.00,,,0.27,0.000000,,2013-05-27 11:42:00,
2013-05-27 04:52:00,45.0,44.0,-100.00,East,84,0.0,6.0,97,0.00,,,0.27,0.000000,,2013-05-27 11:52:00,
2013-05-27 05:01:00,45.0,44.0,-100.00,East,84,0.0,6.0,97,0.00,,,0.27,0.000000,,2013-05-27 12:01:00,
2013-05-27 05:11:00,46.0,45.0,-100.00,ENE,75,0.0,7.0,97,0.00,,,0.27,0.000000,,2013-05-27 12:11:00,
2013-05-27 05:32:00,46.0,45.0,-100.00,ENE,75,0.0,7.0,97,0.00,,,0.27,0.000000,,2013-05-27 12:32:00,
2013-05-27 05:42:00,46.0,45.0,-100.00,ENE,75,0.0,7.0,97,0.00,,,0.27,0.000000,,2013-05-27 12:42:00,
2013-05-27 05:52:00,46.0,45.0,-100.00,ENE,75,0.0,7.0,97,0.00,,,0.27,0.000000,,2013-05-27 12:52:00,
2013-05-27 06:01:00,46.0,45.0,-100.00,ENE,75,0.0,7.0,97,0.00,,,0.27,0.000000,,2013-05-27 13:01:00,
2013-05-27 06:11:00,46.0,45.0,-100.00,East,94,0.0,6.0,97,0.03,,,0.30,3.000000,,2013-05-27 13:11:00,
2013-05-27 06:32:00,46.0,45.0,-100.00,East,94,0.0,6.0,97,0.03,,,0.30,3.000000,,2013-05-27 13:32:00,
2013-05-27 06:42:00,46.0,45.0,-100.00,East,94,0.0,6.0,97,0.03,,,0.30,3.000000,,2013-05-27 13:42:00,
2013-05-27 06:52:00,46.0,45.0,-100.00,East,94,0.0,6.0,97,0.03,,,0.30,3.000000,,2013-05-27 13:52:00,
2013-05-27 07:01:00,46.0,45.0,-100.00,East,94,0.0,6.0,97,0.03,,,0.30,3.000000,,2013-05-27 14:01:00,
2013-05-27 07:11:00,46.0,45.0,-100.00,East,88,0.0,11.0,97,0.10,,,-99.99,28.000000,,2013-05-27 14:11:00,
2013-05-27 07:32:00,46.0,45.0,-100.00,East,88,0.0,11.0,97,0.10,,,-99.99,28.000000,,2013-05-27 14:32:00,
2013-05-27 07:42:00,46.0,45.0,-100.00,East,88,0.0,11.0,97,0.10,,,-99.99,28.000000,,2013-05-27 14:42:00,
2013-05-27 07:52:00,46.0,45.0,-100.00,East,88,0.0,11.0,97,0.10,,,-99.99,28.000000,,2013-05-27 14:52:00,
2013-05-27 08:01:00,46.0,45.0,-100.00,East,88,0.0,11.0,97,0.10,,,-99.99,28.000000,,2013-05-27 15:01:00,
2013-05-27 08:11:00,46.0,45.0,-100.00,East,87,3.0,11.0,97,0.21,,,0.55,41.000000,,2013-05-27 15:11:00,
2013-05-27 08:33:00,46.0,45.0,-100.00,East,87,3.0,11.0,97,0.21,,,0.55,41.000000,,2013-05-27 15:33:00,
2013-05-27 08:43:00,46.0,45.0,-100.00,East,87,3.0,11.0,97,0.21,,,0.55,41.000000,,2013-05-27 15:43:00,
2013-05-27 08:53:00,46.0,45.0,-100.00,East,87,3.0,11.0,97,0.21,,,0.55,41.000000,,2013-05-27 15:53:00,
2013-05-27 09:02:00,46.0,45.0,-100.00,East,87,3.0,11.0,97,0.21,,,0.55,41.000000,,2013-05-27 16:02:00,
2013-05-27 09:11:00,45.0,44.0,-100.00,East,91,5.0,13.0,97,0.20,,,0.74,76.000000,,2013-05-27 16:11:00,
2013-05-27 09:33:00,45.0,44.0,-100.00,East,91,5.0,13.0,97,0.20,,,0.74,76.000000,,2013-05-27 16:33:00,
2013-05-27 09:42:00,45.0,44.0,-100.00,East,91,5.0,13.0,97,0.20,,,0.74,76.000000,,2013-05-27 16:42:00,
2013-05-27 09:52:00,45.0,44.0,-100.00,East,91,5.0,13.0,97,0.20,,,0.74,76.000000,,2013-05-27 16:52:00,
2013-05-27 10:02:00,45.0,44.0,-100.00,East,91,5.0,13.0,97,0.20,,,0.74,76.000000,,2013-05-27 17:02:00,
2013-05-27 10:11:00,47.0,46.0,-100.00,East,87,5.0,15.0,97,0.12,,,0.85,94.000000,,2013-05-27 17:11:00,
2013-05-27 10:32:00,47.0,46.0,-100.00,East,87,5.0,15.0,97,0.12,,,0.85,94.000000,,2013-05-27 17:32:00,
2013-05-27 10:43:00,47.0,46.0,-100.00,East,87,5.0,15.0,97,0.12,,,0.85,94.000000,,2013-05-27 17:43:00,
2013-05-27 10:52:00,47.0,46.0,-100.00,East,87,5.0,15.0,97,0.12,,,0.85,94.000000,,2013-05-27 17:52:00,
2013-05-27 11:02:00,47.0,46.0,-100.00,East,87,5.0,15.0,97,0.12,,,0.85,94.000000,,2013-05-27 18:02:00,
2013-05-27 11:11:00,46.0,45.0,-100.00,East,85,6.0,16.0,96,0.24,,,1.08,119.000000,,2013-05-27 18:11:00,
2013-05-27 11:32:00,46.0,45.0,-100.00,East,85,6.0,16.0,96,0.24,,,1.08,119.000000,,2013-05-27 18:32:00,
2013-05-27 11:42:00,46.0,45.0,-100.00,East,85,6.0,16.0,96,0.24,,,1.08,119.000000,,2013-05-27 18:42:00,
2013-05-27 11:52:00,46.0,45.0,-100.00,East,85,6.0,16.0,96,0.24,,,1.08,119.000000,,2013-05-27 18:52:00,
2013-05-27 12:01:00,46.0,45.0,-100.00,East,85,6.0,16.0,96,0.24,,,1.08,119.000000,,2013-05-27 19:01:00,
2013-05-27 12:11:00,48.0,47.0,-100.00,East,82,5.0,16.0,95,0.30,,,1.38,141.000000,,2013-05-27 19:11:00,
2013-05-27 12:32:00,48.0,47.0,-100.00,East,82,5.0,16.0,95,0.30,,,1.38,141.000000,,2013-05-27 19:32:00,
2013-05-27 12:42:00,48.0,47.0,-100.00,East,82,5.0,16.0,95,0.30,,,1.38,141.000000,,2013-05-27 19:42:00,
2013-05-27 12:52:00,48.0,47.0,-100.00,East,82,5.0,16.0,95,0.30,,,1.38,141.000000,,2013-05-27 19:52:00,
2013-05-27 13:01:00,48.0,47.0,-100.00,East,82,5.0,16.0,95,0.30,,,1.38,141.000000,,2013-05-27 20:01:00,
2013-05-27 13:11:00,48.0,46.0,-100.00,East,85,5.0,11.0,94,0.22,,,1.60,189.000000,,2013-05-27 20:11:00,
2013-05-27 13:32:00,48.0,46.0,-100.00,East,85,5.0,11.0,94,0.22,,,1.60,189.000000,,2013-05-27 20:32:00,
2013-05-27 13:42:00,48.0,46.0,-100.00,East,85,5.0,11.0,94,0.22,,,1.60,189.000000,,2013-05-27 20:42:00,
2013-05-27 13:52:00,48.0,46.0,-100.00,East,85,5.0,11.0,94,0.22,,,1.60,189.000000,,2013-05-27 20:52:00,
2013-05-27 14:01:00,48.0,46.0,-100.00,East,85,5.0,11.0,94,0.22,,,1.60,189.000000,,2013-05-27 21:01:00,
2013-05-27 14:11:00,49.0,48.0,-100.00,East,84,3.0,11.0,95,0.26,,,1.86,126.000000,,2013-05-27 21:11:00,
2013-05-27 14:33:00,49.0,48.0,-100.00,East,84,3.0,11.0,95,0.26,,,1.86,126.000000,,2013-05-27 21:33:00,
2013-05-27 14:43:00,49.0,48.0,-100.00,East,84,3.0,11.0,95,0.26,,,1.86,126.000000,,2013-05-27 21:43:00,
2013-05-27 14:53:00,49.0,48.0,-100.00,East,84,3.0,11.0,95,0.26,,,1.86,126.000000,,2013-05-27 21:53:00,
2013-05-27 15:02:00,49.0,48.0,-100.00,East,84,3.0,11.0,95,0.26,,,1.86,126.000000,,2013-05-27 22:02:00,
2013-05-27 15:11:00,48.0,46.0,-100.00,ENE,77,3.0,11.0,94,0.09,,,1.95,102.000000,,2013-05-27 22:11:00,
2013-05-27 15:33:00,48.0,46.0,-100.00,ENE,77,3.0,11.0,94,0.09,,,1.95,102.000000,,2013-05-27 22:33:00,
2013-05-27 15:42:00,48.0,46.0,-100.00,ENE,77,3.0,11.0,94,0.09,,,1.95,102.000000,,2013-05-27 22:42:00,
2013-05-27 15:53:00,48.0,46.0,-100.00,ENE,77,3.0,11.0,94,0.09,,,1.95,102.000000,,2013-05-27 22:53:00,
2013-05-27 16:02:00,48.0,46.0,-100.00,ENE,77,3.0,11.0,94,0.09,,,1.95,102.000000,,2013-05-27 23:02:00,
2013-05-27 16:11:00,51.0,48.0,-100.00,East,86,2.0,10.0,91,0.00,,,1.95,285.000000,,2013-05-27 23:11:00,
2013-05-27 16:32:00,51.0,48.0,-100.00,East,86,2.0,10.0,91,0.00,,,1.95,285.000000,,2013-05-27 23:32:00,
2013-05-27 16:42:00,51.0,48.0,-100.00,East,86,2.0,10.0,91,0.00,,,1.95,285.000000,,2013-05-27 23:42:00,
2013-05-27 16:52:00,51.0,48.0,-100.00,East,86,2.0,10.0,91,0.00,,,1.95,285.000000,,2013-05-27 23:52:00,
2013-05-27 17:01:00,51.0,48.0,-100.00,East,86,2.0,10.0,91,0.00,,,1.95,285.000000,,2013-05-28 00:01:00,
2013-05-27 18:11:00,52.0,49.0,-100.00,SE,130,0.0,7.0,90,-99.99,,,2.10,146.000000,,2013-05-28 01:11:00,
2013-05-27 18:32:00,52.0,49.0,-100.00,SE,130,0.0,7.0,90,-99.99,,,2.10,146.000000,,2013-05-28 01:32:00,
2013-05-27 18:42:00,52.0,49.0,-100.00,SE,130,0.0,7.0,90,-99.99,,,2.10,146.000000,,2013-05-28 01:42:00,
2013-05-27 18:52:00,52.0,49.0,-100.00,SE,130,0.0,7.0,90,-99.99,,,2.10,146.000000,,2013-05-28 01:52:00,
2013-05-27 19:02:00,52.0,49.0,-100.00,SE,130,0.0,7.0,90,-99.99,,,2.10,146.000000,,2013-05-28 02:02:00,
2013-05-27 19:11:00,51.0,48.0,-100.00,South,170,0.0,4.0,91,0.09,,,-99.99,97.000000,,2013-05-28 02:11:00,
2013-05-27 19:32:00,51.0,48.0,-100.00,South,170,0.0,4.0,91,0.09,,,-99.99,97.000000,,2013-05-28 02:32:00,
2013-05-27 19:42:00,51.0,48.0,-100.00,South,170,0.0,4.0,91,0.09,,,-99.99,97.000000,,2013-05-28 02:42:00,
2013-05-27 19:52:00,51.0,48.0,-100.00,South,170,0.0,4.0,91,0.09,,,-99.99,97.000000,,2013-05-28 02:52:00,
2013-05-27 20:01:00,51.0,48.0,-100.00,South,170,0.0,4.0,91,0.09,,,-99.99,97.000000,,2013-05-28 03:01:00,
2013-05-27 20:11:00,52.0,50.0,-100.00,SSE,164,0.0,0.0,93,0.01,,,2.13,71.000000,,2013-05-28 03:11:00,
2013-05-27 20:33:00,52.0,50.0,-100.00,SSE,164,0.0,0.0,93,0.01,,,2.13,71.000000,,2013-05-28 03:33:00,
2013-05-27 20:43:00,52.0,50.0,-100.00,SSE,164,0.0,0.0,93,0.01,,,2.13,71.000000,,2013-05-28 03:43:00,
2013-05-27 20:53:00,52.0,50.0,-100.00,SSE,164,0.0,0.0,93,0.01,,,2.13,71.000000,,2013-05-28 03:53:00,
2013-05-27 21:02:00,52.0,50.0,-100.00,SSE,164,0.0,0.0,93,0.01,,,2.13,71.000000,,2013-05-28 04:02:00,
2013-05-27 21:11:00,50.0,49.0,-100.00,South,179,0.0,7.0,95,0.43,,,2.45,11.000000,,2013-05-28 04:11:00,
2013-05-27 21:33:00,50.0,49.0,-100.00,South,179,0.0,7.0,95,0.43,,,2.45,11.000000,,2013-05-28 04:33:00,
2013-05-27 21:43:00,50.0,49.0,-100.00,South,179,0.0,7.0,95,0.43,,,2.45,11.000000,,2013-05-28 04:43:00,
2013-05-27 21:52:00,50.0,49.0,-100.00,South,179,0.0,7.0,95,0.43,,,2.45,11.000000,,2013-05-28 04:52:00,
2013-05-27 22:02:00,50.0,49.0,-100.00,South,179,0.0,7.0,95,0.43,,,2.45,11.000000,,2013-05-28 05:02:00,
2013-05-27 22:11:00,49.0,48.0,-100.00,South,174,1.0,7.0,96,0.07,,,2.52,0.000000,,2013-05-28 05:11:00,
2013-05-27 22:33:00,49.0,48.0,-100.00,South,174,1.0,7.0,96,0.07,,,2.52,0.000000,,2013-05-28 05:33:00,
2013-05-27 22:42:00,49.0,48.0,-100.00,South,174,1.0,7.0,96,0.07,,,2.52,0.000000,,2013-05-28 05:42:00,
2013-05-27 22:52:00,49.0,48.0,-100.00,South,174,1.0,7.0,96,0.07,,,2.52,0.000000,,2013-05-28 05:52:00,
2013-05-27 23:02:00,49.0,48.0,-100.00,South,174,1.0,7.0,96,0.07,,,2.52,0.000000,,2013-05-28 06:02:00,
2013-05-27 23:11:00,48.0,47.0,-100.00,ESE,123,0.0,6.0,96,0.00,,,2.52,0.000000,,2013-05-28 06:11:00,
2013-05-27 23:32:00,48.0,47.0,-100.00,ESE,123,0.0,6.0,96,0.00,,,2.52,0.000000,,2013-05-28 06:32:00,
2013-05-27 23:42:00,48.0,47.0,-100.00,ESE,123,0.0,6.0,96,0.00,,,2.52,0.000000,,2013-05-28 06:42:00,
2013-05-27 23:52:00,48.0,47.0,-100.00,ESE,123,0.0,6.0,96,0.00,,,2.52,0.000000,,2013-05-28 06:52:00,